Location: Zagreb
(45.8000°N, 16.0000°E)
Time: 00:14:45
(UTC+01:00)

NO-84 - Visible Passes

Search period start: 31 October 2020 00:00
Search period end: 10 November 2020 00:00
Orbit: 321 x 467 km, 55.0° (Epoch: 28 October)

Date Brightness Start Highest point End Pass type
(mag) Time Alt. Az. Time Alt. Az. Time Alt. Az.
31 Oct ? 04:50:02 18° N 04:50:02 18° N 04:52:08 10° NE visible
01 Nov ? 03:56:46 10° NE 03:56:46 10° NE 03:56:50 10° NE visible
01 Nov ? 05:29:13 11° NNW 05:31:02 16° N 05:33:06 10° NE visible
02 Nov ? 04:35:53 16° N 04:35:53 16° N 04:37:24 10° NE visible
03 Nov ? 05:14:56 14° NNW 05:16:19 18° N 05:18:36 10° ENE visible
04 Nov ? 04:21:30 14° NNE 04:21:30 14° NNE 04:22:35 10° NE visible
04 Nov ? 05:54:15 10° NW 05:57:09 31° NNE 05:59:56 10° E visible
05 Nov ? 05:00:28 20° N 05:01:20 22° NNE 05:03:52 10° ENE visible
06 Nov ? 04:06:59 13° NE 04:06:59 13° NE 04:07:41 10° NE visible
06 Nov ? 05:39:25 15° NW 05:41:55 49° NNE 05:44:53 10° ESE visible
07 Nov ? 04:45:55 30° NNE 04:46:03 30° NNE 04:48:51 10° E visible
08 Nov ? 03:52:26 11° ENE 03:52:26 11° ENE 03:52:35 10° ENE visible
08 Nov ? 05:24:52 29° NW 05:26:22 88° NE 05:29:23 10° SE visible
09 Nov ? 04:31:23 33° ENE 04:31:23 33° ENE 04:33:27 10° ESE visible
09 Nov ? 06:03:50 11° W 06:06:10 22° SW 06:08:34 10° S visible
